STARLINK-35328

Last updated on Mon Oct 20 2025 00:02:05 GMT+0000 (Coordinated Universal Time)

1 65652U 25211A 25292.25002315 -.02395672 00000+0 -67014-1 0 9997 2 65652 97.6037 334.4003 0001759 86.9844 261.0783 15.40259377 5720
UTC large
Height (km)
Speed (km/s)
/
Latitude / Longitude
Inclination (degrees)
Orbital Period (minutes)
Azimuth
Elevation
Range (km)
Doppler Factor

Next 0 passes for location: London (51.5072 / 0.1276)

Sorry there are no passes over London.